Regional Weather Roundup
Issued by NWS

Home | Current Version | Previous Version | Graphics & Text | Print | Product List | Glossary On
Versions: 1 2 3 4 5 6 7 8 9 10 11 12 13 14 15 16 17 18 19 20 21 22 23 24 25 26 27 28 29 30 31 32 33 34 35 36 37 38 39 40 41 42 43 44 45 46 47 48 49 50
000
ASUS43 KIND 192009
RWRIN

WEATHER ROUNDUP FOR INDIANA
NATIONAL WEATHER SERVICE INDIANAPOLIS IN
400 PM EDT TUE SEP 19 2017

NOTE: "FAIR" INDICATES FEW OR NO CLOUDS BELOW 12,000 FEET WITH NO
SIGNIFICANT WEATHER AND/OR OBSTRUCTIONS TO VISIBILITY.

* - STATION DOES NOT REPORT WEATHER SUCH AS PRECIPITATION OR FOG.

+ - STATION NOT QUALITY CONTROLLED BY THE NATIONAL WEATHER SERVICE.
    USE DATA WITH CAUTION...ESPECIALLY DEWPOINT AND RELATIVE
    HUMIDITY OBSERVATIONS.

INZ001>003-010>013-019-020-192100-
NORTHWEST INDIANA

CITY           SKY/WX    TMP DP  RH WIND       PRES   REMARKS
GARY /AIRPORT/ MOSUNNY   75  66  73 N9        29.94F
KNOX *+        PTSUNNY   77  64  65 CALM      29.92S
LA PORTE +     CLOUDY    72  66  81 NE6       29.94S
MICHIGAN CITY+ CLOUDY    72  64  78 E3        29.93F
MONTICELLO +   MOSUNNY   77  65  65 NW7       29.91F
RENSSELAER +   PTSUNNY   77  61  57 NW5       29.92S
VALPARAISO     CLOUDY    76  67  73 NE3       29.93S

$$

LMZ046-743>745-192100-
SOUTHERN LAKE MICHIGAN

STATION/POSITION TIME  TEMP    WIND        PRES    WAVE
                       AIR SEA DIR/SP/G            HT
                 (UTC) (F)     (DEG/KT/KT) (MB)    (FT)
BURNS HARBOR     1940   71      50/  6/  7 1013.9F
MICHIGAN CITY    1940   67      10/  7/  8   N/A
5NW MICH CITY    2000   68 69   50/  8/ 10   N/A     1

$$

INZ004-005-014>016-021>024-192100-
NORTH CENTRAL INDIANA

CITY           SKY/WX    TMP DP  RH WIND       PRES   REMARKS
ELKHART          N/A     72  66  83 NE8       29.93F
GOSHEN         CLOUDY    72  65  78 NE10      29.92S
LOGANSPORT +   PTSUNNY   75  64  69 W6        29.92F
PERU/GRISSOM   PTSUNNY   78  67  69 W9        29.90F
ROCHESTER +    CLOUDY    77  66  69 SW7       29.92F
SOUTH BEND     CLOUDY    71  67  87 N8        29.92F
WARSAW +       CLOUDY    73  70  88 NW3       29.91S

$$

INZ006>009-017-018-025>027-192100-
NORTHEAST INDIANA

CITY           SKY/WX    TMP DP  RH WIND       PRES   REMARKS
AUBURN +       CLOUDY    70  66  88 CALM      29.93F
FORT WAYNE     TSTM      73  68  84 S5        29.93R
HUNTINGTON +   CLOUDY    72  70  96 SE3       29.92S
KENDALLVILLE + CLOUDY    72  69  89 E3        29.93F

$$

INZ028-029-035-036-043>045-051>053-192100-
WEST CENTRAL INDIANA

CITY           SKY/WX    TMP DP  RH WIND       PRES   REMARKS
CRAWFORDSVL +  CLOUDY    75  66  73 CALM      29.91F
GREENCASTLE +  PTSUNNY   77  63  61 CALM      29.92F
LAFAYETTE      MOSUNNY   75  66  73 NW7       29.91F
TERRE HAUTE    MOSUNNY   81  64  56 SW6G16    29.90F

$$

INZ030>032-037>040-046>048-054>057-064-065-192100-
CENTRAL INDIANA

CITY           SKY/WX    TMP DP  RH WIND       PRES   REMARKS
CP ATTERBURY + MOSUNNY   79  68  69 S7        29.93S
FISHERS *+     PTSUNNY   79  70  73 W5        29.92F
FRANKFORT +    CLOUDY    82  68  62 NW7       29.93F
GREENWOOD *+   PTSUNNY   83  70  64 W6        29.93S
INDIANAPOLIS   PTSUNNY   79  66  64 W7        29.91F
-EAGLE CREEK   PTSUNNY   79  65  62 W7        29.91F
KOKOMO +       MOSUNNY   77  67  71 SW7       29.92F
MT COMFORT *+    N/A    N/A N/A N/A MISG        N/A
SHELBYVILLE    PTSUNNY   80  66  62 CALM      29.92F
ZIONSVILLE +   RAIN      75  66  73 NW8       29.93S

$$

INZ033-034-041-042-049-050-058-059-192100-
EAST CENTRAL INDIANA

CITY           SKY/WX    TMP DP  RH WIND       PRES   REMARKS
MUNCIE         PTSUNNY   79  66  64 VRB6      29.92F
RICHMOND +     PTSUNNY   73  64  73 CALM      29.96F

$$

INZ060-061-067>069-081>083-085>088-192100-
SOUTHWEST INDIANA

CITY           SKY/WX    TMP DP  RH WIND       PRES   REMARKS
EVANSVILLE     PTSUNNY   82  69  64 VRB5      29.92F
HUNTINGBURG +    N/A    N/A N/A N/A MISG        N/A
WASHINGTON +   CLOUDY    82  62  51 CALM      29.90F

$$

INZ062-063-066-070>080-084-089>092-192100-
SOUTH CENTRAL AND SOUTHEAST INDIANA

CITY           SKY/WX    TMP DP  RH WIND       PRES   REMARKS
BEDFORD +      PTSUNNY   79  66  65 CALM      29.93F
BLOOMINGTON    MOSUNNY   82  63  52 SW7       29.92F
MADISON *+     CLOUDY    77  64  65 S5        29.97F
NORTH VERNON + CLOUDY    77  66  69 SW8       29.95F
SEYMOUR +      MOSUNNY   79  66  65 SW7       29.93F

$$





USA.gov is the U.S. government's official web portal to all federal, state and local government web resources and services.